SKL3 NZKK-NZAP

Flight info

Callsign SKL3
Flight time 0h 45m
Altitude 36000
Route UPGA1Q DCT SF H379 AA H211 GOSTI
Aircraft C25C/M-SDE2E3FGHRWXY/LB1

Departure

Time 2026-04-14 04:09
Airport Kerikeri Airport (NZKK)

Arrival

Time 2026-04-14 04:54
Airport Taupo Airport (NZAP)
Time Latitude Longitude Altitude Speed Heading
2026-04-14 03:51 -35.26227 173.91209 478 ft 0 kts 99°
2026-04-14 04:06 -35.26227 173.91210 476 ft 1 kts 99°
2026-04-14 04:07 -35.26253 173.91265 478 ft 12 kts 153°
2026-04-14 04:07 -35.26266 173.91283 478 ft 2 kts 106°
2026-04-14 04:07 -35.26238 173.91360 468 ft 12 kts 12°
2026-04-14 04:07 -35.26208 173.91359 469 ft 1 kts 345°
2026-04-14 04:08 -35.26207 173.91359 475 ft 2 kts 344°
2026-04-14 04:08 -35.25882 173.91256 474 ft 102 kts 346°
2026-04-14 04:09 -35.24971 173.90974 759 ft 149 kts 349°
2026-04-14 04:09 -35.24020 173.90788 1791 ft 135 kts 349°
2026-04-14 04:09 -35.22934 173.90541 2814 ft 176 kts 349°
2026-04-14 04:09 -35.21637 173.90959 4112 ft 221 kts 36°
2026-04-14 04:10 -35.20773 173.92535 5873 ft 224 kts 65°
2026-04-14 04:10 -35.20516 173.94307 7806 ft 208 kts 99°
2026-04-14 04:10 -35.21004 173.95945 9446 ft 211 kts 134°
2026-04-14 04:10 -35.22148 173.97030 10821 ft 207 kts 165°
2026-04-14 04:11 -35.23488 173.97737 12214 ft 213 kts 166°
2026-04-14 04:11 -35.24857 173.98510 13627 ft 219 kts 165°
2026-04-14 04:11 -35.26314 173.99323 14616 ft 244 kts 164°
2026-04-14 04:11 -35.27941 174.00226 15474 ft 272 kts 162°
2026-04-14 04:12 -35.29746 174.01219 16424 ft 295 kts 162°
2026-04-14 04:12 -35.31670 174.02270 17699 ft 297 kts 162°
2026-04-14 04:12 -35.33595 174.03332 18816 ft 316 kts 162°
2026-04-14 04:12 -35.35627 174.04465 19923 ft 320 kts 161°
2026-04-14 04:13 -35.37653 174.05609 20982 ft 332 kts 161°
2026-04-14 04:13 -35.39783 174.06789 22078 ft 338 kts 161°
2026-04-14 04:13 -35.41999 174.07997 22843 ft 356 kts 162°
2026-04-14 04:13 -35.44209 174.09228 24235 ft 343 kts 161°
2026-04-14 04:14 -35.46448 174.10478 24837 ft 361 kts 161°
2026-04-14 04:14 -35.48709 174.11774 25750 ft 364 kts 160°
2026-04-14 04:14 -35.51025 174.13083 26627 ft 368 kts 161°
2026-04-14 04:14 -35.53383 174.14379 27462 ft 373 kts 161°
2026-04-14 04:15 -35.55777 174.15697 28158 ft 383 kts 161°
2026-04-14 04:15 -35.58292 174.17093 28212 ft 410 kts 161°
2026-04-14 04:15 -35.60959 174.18591 28488 ft 427 kts 160°
2026-04-14 04:15 -35.63664 174.20112 29246 ft 429 kts 160°
2026-04-14 04:16 -35.66365 174.21621 30008 ft 427 kts 160°
2026-04-14 04:16 -35.69040 174.23116 31100 ft 417 kts 161°
2026-04-14 04:16 -35.71686 174.24592 31824 ft 417 kts 162°
2026-04-14 04:16 -35.74329 174.26071 32552 ft 416 kts 162°
2026-04-14 04:17 -35.76961 174.27545 33286 ft 415 kts 162°
2026-04-14 04:17 -35.79610 174.29030 33692 ft 424 kts 162°
2026-04-14 04:17 -35.82356 174.30558 33696 ft 441 kts 162°
2026-04-14 04:17 -35.85198 174.32153 33709 ft 456 kts 162°
2026-04-14 04:18 -35.88078 174.33780 33816 ft 465 kts 161°
2026-04-14 04:18 -35.91030 174.35448 34173 ft 467 kts 161°
2026-04-14 04:18 -35.93995 174.37114 34480 ft 469 kts 161°
2026-04-14 04:18 -35.96981 174.38790 34781 ft 472 kts 161°
2026-04-14 04:19 -35.99973 174.40479 35064 ft 474 kts 161°
2026-04-14 04:19 -36.02985 174.42179 35343 ft 477 kts 161°
2026-04-14 04:19 -36.06013 174.43890 35605 ft 479 kts 161°
2026-04-14 04:20 -36.12171 174.47365 35736 ft 493 kts 161°
2026-04-14 04:20 -36.18399 174.50903 35759 ft 489 kts 161°
2026-04-14 04:21 -36.24583 174.54403 35761 ft 495 kts 161°
2026-04-14 04:21 -36.30877 174.57987 35761 ft 498 kts 161°
2026-04-14 04:22 -36.37163 174.61565 35753 ft 497 kts 161°
2026-04-14 04:22 -36.40284 174.63345 35754 ft 483 kts 161°
2026-04-14 04:22 -36.43258 174.65055 35747 ft 460 kts 161°
2026-04-14 04:23 -36.49019 174.68323 35753 ft 454 kts 161°
2026-04-14 04:23 -36.51638 174.69855 35805 ft 381 kts 161°
2026-04-14 04:23 -36.53891 174.71168 35748 ft 336 kts 163°
2026-04-14 04:23 -36.55902 174.72301 35727 ft 307 kts 165°
2026-04-14 04:24 -36.57777 174.73359 35720 ft 287 kts 165°
2026-04-14 04:24 -36.59546 174.74368 35721 ft 273 kts 166°
2026-04-14 04:24 -36.61239 174.75341 35723 ft 263 kts 166°
2026-04-14 04:24 -36.62882 174.76282 35721 ft 256 kts 166°
2026-04-14 04:25 -36.64463 174.77187 35719 ft 250 kts 167°
2026-04-14 04:25 -36.66032 174.78089 35721 ft 246 kts 167°
2026-04-14 04:25 -36.67579 174.78975 35722 ft 243 kts 167°
2026-04-14 04:25 -36.69105 174.79852 35722 ft 240 kts 167°
2026-04-14 04:26 -36.70616 174.80723 35726 ft 238 kts 167°
2026-04-14 04:26 -36.72123 174.81587 35725 ft 237 kts 167°
2026-04-14 04:26 -36.73615 174.82447 35724 ft 236 kts 167°
2026-04-14 04:26 -36.75086 174.83295 35718 ft 236 kts 167°
2026-04-14 04:27 -36.76572 174.84149 35718 ft 234 kts 167°
2026-04-14 04:27 -36.78049 174.85002 35720 ft 234 kts 167°
2026-04-14 04:27 -36.79532 174.85856 35721 ft 235 kts 167°
2026-04-14 04:27 -36.81012 174.86708 35721 ft 234 kts 167°
2026-04-14 04:28 -36.82487 174.87564 35721 ft 233 kts 167°
2026-04-14 04:28 -36.83962 174.88413 35720 ft 233 kts 167°
2026-04-14 04:28 -36.85440 174.89266 35718 ft 233 kts 167°
2026-04-14 04:28 -36.86914 174.90120 35719 ft 233 kts 167°
2026-04-14 04:29 -36.88373 174.90961 35719 ft 233 kts 167°
2026-04-14 04:29 -36.89847 174.91814 35719 ft 233 kts 167°
2026-04-14 04:29 -36.91321 174.92669 35718 ft 234 kts 167°
2026-04-14 04:29 -36.92798 174.93522 35718 ft 234 kts 166°
2026-04-14 04:30 -36.93776 174.94090 35719 ft 233 kts 167°
2026-04-14 04:30 -36.95255 174.94947 35718 ft 234 kts 166°
2026-04-14 04:30 -36.96731 174.95800 35719 ft 234 kts 167°
2026-04-14 04:30 -36.98207 174.96659 35722 ft 234 kts 166°
2026-04-14 04:31 -36.99689 174.97516 35716 ft 234 kts 166°
2026-04-14 04:31 -37.01170 174.98376 35720 ft 234 kts 166°
2026-04-14 04:31 -37.04122 175.00090 35721 ft 234 kts 166°
2026-04-14 04:32 -37.05610 175.00953 35720 ft 238 kts 166°
2026-04-14 04:32 -37.06829 175.01659 35725 ft 245 kts 166°
2026-04-14 04:32 -37.07376 175.01974 35708 ft 255 kts 166°
2026-04-14 04:33 -37.09071 175.02946 35746 ft 281 kts 164°
2026-04-14 04:33 -37.10929 175.04026 35754 ft 307 kts 163°
2026-04-14 04:33 -37.12942 175.05207 35765 ft 332 kts 162°
2026-04-14 04:33 -37.15112 175.06473 35766 ft 356 kts 161°
2026-04-14 04:34 -37.17425 175.07822 35762 ft 377 kts 161°
2026-04-14 04:34 -38.62292 175.70865 35861 ft 32000 kts 161°
2026-04-14 04:34 -38.83731 175.80415 35776 ft 410 kts 159°
2026-04-14 04:34 -38.29437 175.50925 35747 ft 421 kts 159°
2026-04-14 04:35 -37.74381 175.24959 35699 ft 0 kts 159°
2026-04-14 04:36 -37.76234 175.25918 35721 ft 432 kts 161°
2026-04-14 04:36 -37.79055 175.27561 34805 ft 467 kts 160°
2026-04-14 04:36 -37.81914 175.29269 33249 ft 440 kts 159°
2026-04-14 04:37 -37.84626 175.30870 31451 ft 419 kts 159°
2026-04-14 04:37 -37.87231 175.32372 29778 ft 403 kts 159°
2026-04-14 04:37 -37.89708 175.33801 27532 ft 394 kts 158°
2026-04-14 04:37 -37.92203 175.35259 25152 ft 394 kts 158°
2026-04-14 04:38 -37.94655 175.36700 24086 ft 366 kts 157°
2026-04-14 04:38 -37.96952 175.38054 23953 ft 377 kts 157°
2026-04-14 04:38 -37.99466 175.39508 23488 ft 418 kts 157°
2026-04-14 04:38 -38.02238 175.41130 22863 ft 455 kts 156°
2026-04-14 04:39 -38.05198 175.42873 22234 ft 482 kts 156°
2026-04-14 04:39 -38.08198 175.44648 21600 ft 456 kts 156°
2026-04-14 04:39 -38.10971 175.46277 21015 ft 424 kts 157°
2026-04-14 04:39 -38.13566 175.47803 20473 ft 399 kts 157°
2026-04-14 04:40 -38.15992 175.49225 19966 ft 379 kts 157°
2026-04-14 04:40 -38.18335 175.50608 19476 ft 363 kts 157°
2026-04-14 04:40 -38.20583 175.51933 19010 ft 350 kts 157°
2026-04-14 04:41 -38.24880 175.54470 18134 ft 331 kts 158°
2026-04-14 04:41 -38.26922 175.55673 17949 ft 315 kts 158°
2026-04-14 04:41 -38.28936 175.56861 17571 ft 337 kts 158°
2026-04-14 04:41 -38.31179 175.58176 17078 ft 370 kts 157°
2026-04-14 04:42 -38.33609 175.59619 16559 ft 396 kts 157°
2026-04-14 04:42 -38.36178 175.61147 16017 ft 417 kts 157°
2026-04-14 04:42 -38.38866 175.62741 15452 ft 433 kts 157°
2026-04-14 04:42 -38.41583 175.64351 14880 ft 429 kts 157°
2026-04-14 04:43 -38.44201 175.65915 14328 ft 403 kts 157°
2026-04-14 04:43 -38.46685 175.67389 13812 ft 383 kts 158°
2026-04-14 04:43 -38.49056 175.68800 13293 ft 369 kts 158°
2026-04-14 04:43 -38.51355 175.70161 12795 ft 357 kts 158°
2026-04-14 04:44 -38.53575 175.71490 12326 ft 346 kts 158°
2026-04-14 04:44 -38.55734 175.72772 11885 ft 338 kts 158°
2026-04-14 04:44 -38.57845 175.74033 11455 ft 332 kts 159°
2026-04-14 04:44 -38.59921 175.75268 11032 ft 327 kts 158°
2026-04-14 04:45 -38.61077 175.75962 10790 ft 324 kts 158°
2026-04-14 04:45 -38.63095 175.77166 10377 ft 316 kts 159°
2026-04-14 04:45 -38.65061 175.78344 9972 ft 309 kts 159°
2026-04-14 04:45 -38.66971 175.79479 9580 ft 304 kts 158°
2026-04-14 04:46 -38.68872 175.80622 9160 ft 298 kts 159°
2026-04-14 04:46 -38.70738 175.81735 8775 ft 294 kts 158°
2026-04-14 04:46 -38.72582 175.82842 8394 ft 290 kts 159°
2026-04-14 04:46 -38.74404 175.83932 8017 ft 287 kts 158°
2026-04-14 04:47 -38.76213 175.85018 7636 ft 284 kts 159°
2026-04-14 04:47 -38.78003 175.86092 7267 ft 283 kts 158°
2026-04-14 04:47 -38.79779 175.87156 6898 ft 281 kts 158°
2026-04-14 04:47 -38.81518 175.88205 6532 ft 279 kts 158°
2026-04-14 04:48 -38.83276 175.89256 6165 ft 278 kts 158°
2026-04-14 04:48 -38.84917 175.90565 5778 ft 281 kts 138°
2026-04-14 04:48 -38.86284 175.92344 5402 ft 279 kts 136°
2026-04-14 04:48 -38.87631 175.94121 5044 ft 277 kts 132°
2026-04-14 04:49 -38.88458 175.96241 4685 ft 260 kts 100°
2026-04-14 04:49 -38.88521 175.98322 4391 ft 209 kts 75°
2026-04-14 04:49 -38.88078 175.99967 4159 ft 183 kts 54°
2026-04-14 04:49 -38.87345 176.01197 3962 ft 167 kts 37°
2026-04-14 04:50 -38.86545 176.02205 3776 ft 159 kts 37°
2026-04-14 04:50 -38.85783 176.03180 3637 ft 151 kts 36°
2026-04-14 04:50 -38.85088 176.04073 3438 ft 141 kts 34°
2026-04-14 04:50 -38.84289 176.04939 3250 ft 148 kts 21°
2026-04-14 04:51 -38.83372 176.05327 3056 ft 134 kts
2026-04-14 04:51 -38.82481 176.05644 2874 ft 131 kts
2026-04-14 04:51 -38.81622 176.05930 2695 ft 127 kts
2026-04-14 04:51 -38.80786 176.06210 2526 ft 123 kts
2026-04-14 04:52 -38.79964 176.06504 2334 ft 123 kts
2026-04-14 04:52 -38.79137 176.06811 2178 ft 122 kts
2026-04-14 04:52 -38.78317 176.07098 2045 ft 122 kts
2026-04-14 04:52 -38.77502 176.07370 1885 ft 120 kts
2026-04-14 04:53 -38.76700 176.07654 1711 ft 119 kts
2026-04-14 04:53 -38.75909 176.07890 1580 ft 115 kts
2026-04-14 04:53 -38.75131 176.08132 1452 ft 115 kts
2026-04-14 04:53 -38.74379 176.08389 1307 ft 102 kts 11°
2026-04-14 04:54 -38.73821 176.08573 1307 ft 57 kts 12°
2026-04-14 04:54 -38.73495 176.08677 1305 ft 34 kts 352°
2026-04-14 04:54 -38.73509 176.08587 1305 ft 19 kts 187°
2026-04-14 04:54 -38.73666 176.08547 1306 ft 26 kts 197°
2026-04-14 04:55 -38.73849 176.08485 1307 ft 28 kts 193°
2026-04-14 04:55 -38.74022 176.08426 1305 ft 20 kts 194°
2026-04-14 04:55 -38.74148 176.08384 1304 ft 15 kts 194°
2026-04-14 04:55 -38.74162 176.08335 1304 ft 8 kts 286°
2026-04-14 04:56 -38.74122 176.08292 1305 ft 9 kts
2026-04-14 04:56 -38.74039 176.08307 1304 ft 13 kts 354°
2026-04-14 04:56 -38.74000 176.08354 1305 ft 7 kts 62°
2026-04-14 04:56 -38.73964 176.08380 1306 ft 6 kts 347°
2026-04-14 04:57 -38.73931 176.08353 1305 ft 3 kts 266°
2026-04-14 04:57 -38.73937 176.08349 1305 ft 0 kts 193°